Temperature
0 1 0 0 0 -1 0 1 1 1 1 2 1 1 1 1 1 2 1 1 1 1 1 1 1 1 1 2 2 1 1 1 1 1 1 1 1 1 1 1 1 1 1 1
-0 0 0 0 0 -0 -0 -0 -0 -0 0 1 1 1 1 1 1 1 1 1 1 1 1 1 1 1 1 1 1 1 1 1 1 1 1 1 1 1 1 1 1 1 1 1
-0 -0 0 1 0 -1 -1 -1 -1 0 1 -0 -0 0 0 1 0 0 0 1 0 0 1 1 1 1 1 1 1 1 1 1 1 1 1 1 0 0 0 0 0 0 0 0
-1 -0 1 2 0 -1 -1 -1 -2 -1 -1 -1 -0 0 1 1 0 0 0 0 0 0 0 0 1 0 0 1 1 1 1 1 0 0 0 0 -0 -0 -0 -0 -0 -1 -0 -0
-2 -1 0 1 0 -1 -1 -1 -1 -2 -2 -1 -1 -1 0 1 0 0 0 0 0 0 0 0 0 0 0 0 0 0 0 0 -0 -0 -0 -0 -1 -1 -1 -1 -1 -1 -1 -1
-2 -0 1 1 -0 -0 -0 -0 -0 -1 -2 -1 -2 -2 -1 0 0 -0 0 0 0 0 0 0 -0 -0 -0 -0 -0 -0 -0 -0 -0 -1 -1 -1 -1 -1 -2 -2 -2 -2 -2 -2
-2 -1 -1 -0 -1 -0 0 1 0 -0 -1 -1 -2 -1 -0 -0 -0 -0 -0 -0 -0 -0 -0 -0 -0 -0 -0 -0 -1 -1 -1 -1 -1 -1 -1 -2 -2 -2 -2 -2 -2 -3 -3 -3
-3 -2 -0 -1 -2 -1 -0 0 0 -0 -0 -1 -1 -0 -1 -1 -1 -1 -1 -1 -1 -1 -1 -1 -1 -1 -1 -1 -1 -1 -1 -2 -2 -2 -2 -2 -2 -2 -3 -3 -3 -3 -3 -3
-2 -1 -1 -1 -1 0 0 -0 -0 -0 -0 -1 -1 -1 -1 -1 -1 -1 -1 -1 -1 -1 -1 -1 -1 -1 -1 -1 -2 -2 -2 -2 -2 -2 -2 -2 -3 -3 -3 -3 -4 -4 -4 -4
-4 -3 -2 -1 -0 -0 -0 -0 -0 -0 -1 -1 -1 -1 -1 -2 -2 -2 -2 -2 -2 -2 -2 -2 -2 -2 -2 -2 -2 -2 -2 -3 -3 -3 -3 -3 -3 -3 -3 -4 -4 -4 -4 -4
-4 -3 -2 -1 -0 0 -0 -0 -0 -1 -1 -1 -2 -2 -2 -2 -2 -2 -2 -2 -2 -2 -2 -2 -2 -2 -2 -2 -2 -3 -3 -3 -3 -3 -3 -3 -3 -4 -4 -4 -4 -4 -4 -4
-2 -1 -2 -1 0 -0 -1 -1 -1 -1 -1 -2 -2 -2 -2 -2 -2 -2 -2 -2 -3 -3 -3 -3 -3 -3 -3 -3 -3 -3 -3 -3 -3 -4 -4 -4 -4 -4 -4 -4 -4 -4 -4 -4
-0 0 -0 -0 -0 -1 -1 -1 -1 -1 -2 -2 -2 -2 -3 -3 -3 -3 -3 -3 -3 -3 -3 -3 -3 -3 -3 -3 -3 -3 -3 -3 -4 -4 -4 -4 -4 -4 -5 -5 -5 -5 -5 -5
-0 -1 -1 -1 -1 -1 -1 -1 -2 -2 -2 -2 -3 -3 -3 -3 -3 -3 -3 -3 -3 -4 -4 -3 -3 -3 -3 -3 -3 -3 -4 -4 -4 -4 -4 -4 -4 -5 -5 -5 -5 -5 -5 -5
-1 -1 -1 -1 -1 -2 -2 -2 -2 -2 -2 -3 -3 -3 -3 -3 -3 -4 -4 -4 -4 -4 -4 -4 -4 -4 -4 -4 -4 -4 -4 -4 -4 -4 -5 -5 -5 -5 -5 -5 -5 -5 -5 -5
-1 -2 -2 -2 -2 -2 -2 -2 -2 -3 -3 -3 -3 -3 -3 -4 -4 -4 -4 -4 -4 -4 -4 -4 -4 -4 -4 -4 -4 -4 -4 -5 -5 -5 -5 -5 -5 -5 -5 -5 -5 -5 -5 -5
-2 -2 -2 -2 -2 -2 -2 -3 -3 -3 -3 -3 -3 -4 -4 -4 -4 -4 -4 -4 -4 -4 -4 -4 -4 -4 -4 -4 -4 -5 -5 -5 -5 -5 -5 -5 -5 -5 -5 -5 -5 -5 -5 -5
-2 -2 -2 -2 -2 -2 -2 -3 -3 -3 -3 -3 -4 -4 -4 -4 -4 -4 -4 -5 -4 -4 -4 -5 -5 -5 -5 -5 -5 -5 -5 -5 -5 -5 -5 -5 -5 -6 -6 -5 -5 -6 -6 -6
-3 -3 -3 -3 -3 -3 -3 -3 -3 -3 -4 -4 -4 -4 -4 -4 -5 -5 -5 -5 -5 -5 -5 -5 -5 -5 -5 -5 -5 -5 -5 -5 -5 -5 -5 -5 -6 -6 -6 -6 -6 -6 -6 -6
-3 -3 -3 -3 -3 -3 -3 -3 -3 -3 -4 -4 -4 -4 -4 -4 -5 -5 -5 -5 -5 -5 -5 -5 -5 -5 -5 -5 -5 -5 -5 -5 -5 -5 -5 -5 -6 -6 -6 -6 -6 -6 -6 -6
-3 -3 -3 -3 -3 -3 -3 -3 -3 -4 -4 -4 -4 -4 -5 -5 -5 -5 -5 -5 -5 -5 -5 -5 -5 -5 -5 -5 -5 -5 -5 -5 -5 -5 -5 -6 -6 -6 -6 -6 -6 -6 -6 -6
-3 -3 -3 -3 -3 -3 -3 -4 -4 -4 -4 -4 -4 -4 -5 -5 -5 -5 -5 -5 -6 -6 -6 -6 -6 -6 -6 -6 -6 -6 -6 -6 -6 -6 -6 -6 -6 -6 -6 -6 -6 -6 -6 -6
-3 -3 -3 -3 -3 -3 -4 -4 -4 -4 -4 -4 -4 -5 -5 -5 -5 -5 -6 -6 -6 -6 -6 -6 -6 -6 -6 -6 -6 -6 -6 -6 -6 -6 -6 -6 -6 -6 -6 -6 -6 -6 -6 -6
-3 -3 -3 -3 -3 -3 -4 -4 -4 -4 -5 -5 -5 -5 -5 -5 -5 -6 -6 -6 -6 -6 -6 -6 -6 -6 -6 -6 -6 -6 -6 -6 -6 -6 -6 -6 -6 -6 -6 -6 -6 -6 -6 -6
-3 -3 -3 -3 -3 -4 -4 -4 -4 -4 -5 -5 -5 -5 -5 -6 -6 -6 -6 -6 -6 -6 -6 -6 -6 -6 -6 -6 -6 -6 -6 -6 -6 -6 -6 -6 -6 -6 -6 -6 -6 -6 -6 -6
-3 -3 -3 -3 -3 -4 -4 -4 -4 -5 -5 -5 -5 -5 -6 -6 -6 -6 -6 -6 -6 -6 -6 -6 -6 -6 -6 -6 -6 -6 -6 -6 -6 -6 -6 -6 -6 -6 -6 -6 -6 -6 -6 -6
-3 -4 -4 -4 -4 -4 -4 -4 -5 -5 -5 -5 -5 -6 -6 -6 -6 -6 -6 -6 -6 -6 -6 -6 -6 -6 -6 -6 -6 -6 -6 -6 -6 -6 -6 -6 -6 -6 -6 -6 -6 -6 -6 -6
Wind_Speed
5 5 3 5 5 5 7 7 7 7 8 10 6 6 6 6 7 6 6 7 6 6 6 6 6 5 5 5 4 4 3 3 3 3 2 2 2 2 2 2 2 2 2 2
3 3 3 5 6 5 7 6 8 7 9 7 6 4 5 5 6 7 8 8 8 7 7 7 6 5 5 5 4 3 3 3 2 1 1 1 1 1 1 1 1 1 1 2
3 3 3 5 6 6 4 4 5 7 7 6 6 6 6 6 6 7 8 8 8 8 7 7 6 4 4 4 4 3 2 2 1 1 0 0 0 0 1 1 1 1 1 1
1 2 3 5 1 4 4 4 5 5 5 5 7 8 6 5 5 7 8 8 8 8 7 6 5 4 4 3 2 2 2 1 1 0 0 0 0 0 0 0 0 0 1 1
1 2 6 5 2 2 3 4 3 5 7 6 6 6 5 4 4 6 7 8 7 6 6 5 4 4 3 3 2 2 2 1 1 0 0 1 1 1 0 1 0 0 0 0
2 2 4 5 2 1 2 4 3 3 5 5 4 3 5 6 7 7 7 7 6 5 5 4 4 2 2 2 2 2 2 1 1 1 1 1 1 1 1 1 1 1 1 1
3 4 6 4 1 2 2 5 4 3 4 3 3 4 6 7 7 6 7 6 5 4 4 4 3 2 2 2 2 2 2 2 2 2 1 1 1 1 2 1 2 2 1 2
4 3 6 1 3 4 5 3 2 3 3 3 5 5 6 6 6 6 6 6 5 4 4 4 3 3 3 3 3 2 3 3 3 2 2 2 2 2 2 2 2 1 1 1
6 6 3 3 4 4 2 3 3 3 4 3 4 5 6 6 6 6 6 5 5 4 4 5 4 3 2 3 3 3 3 3 3 3 3 2 2 2 2 1 1 1 1 1
4 6 5 4 4 4 3 4 4 3 3 2 3 5 5 5 5 6 5 5 4 4 4 5 4 4 2 3 3 3 4 3 3 3 3 3 2 2 1 1 1 0 0 0
4 6 5 4 4 5 4 3 3 3 3 2 3 4 4 5 5 5 5 5 4 3 3 4 4 4 4 3 3 3 3 3 3 3 3 3 3 2 1 1 0 0 0 0
6 6 4 5 3 2 2 4 3 3 3 2 2 3 4 4 4 4 5 4 4 4 4 4 4 4 4 4 2 2 2 3 2 2 2 2 2 3 5 3 4 3 2 1
6 3 4 4 3 2 2 3 3 2 2 3 2 2 2 3 4 4 4 4 4 4 4 3 4 4 4 3 3 2 2 2 2 2 2 2 2 2 3 4 5 5 4 3
4 2 3 3 3 3 2 2 1 1 2 2 2 2 2 3 4 4 5 5 4 4 4 3 3 4 4 3 2 2 2 2 2 1 1 1 1 1 1 1 2 3 3 4
4 4 4 3 1 1 1 1 1 2 2 3 2 2 3 3 4 5 5 4 4 4 4 4 4 4 4 3 2 2 2 1 2 1 1 1 1 1 1 2 1 1 2 3
3 2 2 2 2 1 1 1 1 2 2 2 3 3 3 3 3 4 4 4 3 4 4 4 4 4 3 2 2 2 2 2 2 1 1 1 1 1 1 1 2 2 2 2
3 3 3 3 3 3 3 3 3 3 2 2 3 3 3 3 3 4 4 4 3 4 4 3 4 4 3 2 1 1 1 2 2 2 1 1 1 1 1 1 1 1 2 2
4 4 4 4 4 4 4 3 3 2 3 3 3 2 2 2 3 4 4 4 4 4 4 4 4 3 3 2 1 1 1 1 1 1 1 1 1 1 1 1 1 1 2 2
2 3 3 3 3 3 3 3 3 2 2 2 1 2 2 2 3 3 3 3 3 4 5 4 5 4 3 3 2 1 1 1 1 1 1 1 1 1 1 1 1 1 1 2
1 1 2 1 1 2 2 2 2 1 1 1 1 2 2 3 3 3 2 2 3 3 4 4 4 3 3 2 2 1 1 1 1 1 1 1 1 1 1 1 1 1 1 1
2 1 1 1 1 1 2 2 2 2 1 1 1 2 3 3 3 2 1 3 3 3 3 4 3 2 2 2 2 1 1 1 1 1 1 1 1 1 1 1 1 1 1 1
2 2 2 1 1 1 2 1 1 1 1 1 2 2 2 2 2 2 2 2 3 4 3 2 2 3 3 2 1 1 1 1 1 1 1 1 1 1 1 1 1 1 1 1
3 3 2 2 2 2 1 1 1 1 2 2 2 2 2 2 1 1 2 2 2 3 3 2 3 3 3 2 1 1 1 1 1 1 1 1 1 1 1 2 2 1 1 1
3 3 2 2 2 1 1 2 2 1 2 2 2 2 2 1 2 2 2 3 3 3 2 2 3 3 3 2 1 1 1 1 1 1 1 1 1 1 1 1 1 1 1 1
3 2 2 2 2 2 2 1 1 1 1 1 2 2 1 1 2 2 2 2 3 3 2 3 3 3 2 1 1 1 1 1 1 1 1 1 1 1 1 1 1 1 1 1
3 3 3 3 3 2 2 1 1 1 1 1 2 2 1 1 1 1 1 1 2 2 2 2 2 2 2 1 1 1 2 2 2 1 1 1 1 1 1 1 1 1 1 1
2 2 1 1 2 2 2 2 2 2 2 2 2 2 1 1 1 1 1 1 1 1 2 2 2 2 2 1 2 1 1 1 1 1 1 1 1 1 1 1 1 1 1 1
Wind_Direction
263 268 240 247 245 219 216 217 223 251 258 272 286 290 296 305 314 315 313 312 310 309 308 312 312 309 306 303 298 289 270 253 249 248 238 227 228 235 234 227 243 239 243 246
291 276 250 268 265 235 234 232 239 268 276 274 293 301 308 311 316 314 311 309 307 305 305 307 305 305 306 306 301 291 278 271 263 238 222 217 220 226 238 231 246 236 228 237
270 306 331 279 245 213 222 223 202 233 254 307 315 306 295 298 305 299 303 304 303 303 299 298 297 294 294 299 306 302 289 287 279 235 209 195 265 254 239 238 237 231 236 234
268 6 247 249 216 190 209 250 233 250 274 289 291 298 288 285 295 302 307 306 302 301 304 305 306 303 305 316 319 315 318 319 314 341 4 43 50 35 360 90 190 215 235 223
162 248 278 295 275 185 201 276 242 251 281 302 319 325 307 298 311 300 300 299 295 294 298 308 313 315 327 333 342 351 339 337 331 119 89 39 31 39 66 92 48 2 28 47
158 200 245 267 291 262 114 294 279 252 282 300 345 336 298 320 324 314 315 316 316 316 322 325 323 341 360 341 349 336 330 335 355 64 91 79 75 72 72 88 90 45 24 13
195 228 264 270 288 103 137 270 292 263 273 275 252 252 286 313 318 317 318 322 333 342 346 334 333 13 15 5 349 334 357 20 26 37 65 124 99 80 72 68 67 66 45 21
169 204 260 225 126 177 233 286 283 280 281 276 281 296 310 315 318 326 333 340 346 354 348 348 7 40 26 356 344 11 33 38 32 28 27 56 90 81 74 76 77 83 78 36
197 213 256 190 206 244 254 273 283 290 290 285 290 303 313 319 322 327 331 336 348 356 354 358 10 32 15 344 7 35 43 40 35 31 33 47 84 86 74 79 95 76 75 44
250 261 254 249 259 278 265 263 280 283 286 291 288 299 313 322 326 328 330 334 345 0 2 356 1 11 1 352 23 47 43 35 37 40 33 33 40 47 66 62 72 56 72 55
253 272 292 273 249 263 276 282 292 300 293 283 286 303 311 318 321 325 331 336 348 354 351 345 356 0 358 6 41 54 46 39 35 36 39 31 32 35 31 11 309 252 281 199
231 232 214 253 257 237 256 277 278 293 315 324 302 296 314 318 321 329 335 340 348 350 346 347 359 356 356 4 26 57 48 36 34 35 35 34 35 35 32 34 30 21 11 14
231 234 221 257 275 259 250 272 283 279 282 306 320 311 323 325 330 338 342 343 340 335 336 345 355 353 352 2 17 46 55 32 26 30 37 34 36 43 37 30 30 30 31 34
232 216 252 252 256 271 275 285 305 342 341 331 331 339 346 342 340 340 333 329 332 337 342 350 359 349 346 4 24 33 29 15 9 15 24 30 31 25 29 26 11 11 20 33
239 217 226 245 264 305 319 356 14 343 342 342 343 342 344 343 333 327 325 330 341 349 348 354 356 342 346 6 23 22 17 13 15 21 23 25 27 28 27 24 18 2 9 24
242 223 217 227 245 260 259 244 249 276 298 313 321 320 317 322 324 328 333 342 351 342 335 341 337 331 343 1 12 14 15 12 14 23 23 22 18 25 27 23 13 1 356 355
201 233 232 245 251 249 247 243 238 247 268 282 286 301 320 340 342 338 336 338 330 318 317 321 320 328 341 352 4 4 1 2 3 14 20 14 17 17 13 15 4 351 334 333
216 222 218 219 223 231 249 255 250 250 257 269 288 311 330 332 319 316 320 330 337 335 328 321 321 330 335 341 350 353 352 351 358 2 10 20 21 11 3 1 352 343 335 343
229 226 225 229 223 217 230 243 248 253 264 271 278 285 288 288 294 305 319 336 339 332 325 327 335 341 338 344 357 357 5 14 6 359 5 24 13 2 353 350 339 335 340 348
233 235 226 236 226 215 229 239 237 249 259 246 263 293 307 303 301 307 317 309 292 286 300 321 332 335 331 339 4 10 4 1 358 357 6 13 348 334 329 328 333 333 335 335
219 218 217 233 264 263 240 219 211 238 259 245 242 262 279 293 298 294 296 305 306 311 318 328 335 326 330 353 8 6 350 338 333 328 330 309 300 301 307 312 313 314 317 323
218 207 215 225 244 283 289 263 234 234 246 258 265 271 281 295 308 308 277 266 291 321 333 324 321 328 351 0 4 359 337 315 302 300 299 294 289 289 296 297 298 304 306 306
214 209 206 212 221 251 294 283 255 235 235 244 251 260 267 275 280 283 300 302 304 320 331 316 328 345 357 5 6 353 328 310 297 291 289 290 290 287 288 288 286 289 296 307
204 206 206 199 170 170 246 277 267 255 252 258 261 260 259 284 304 285 278 304 324 331 330 323 344 353 359 5 356 337 317 306 300 300 306 309 308 302 292 289 290 301 311 319
201 198 186 176 190 217 230 246 260 256 264 275 282 282 274 247 255 290 306 302 319 338 337 332 343 350 356 342 335 324 313 302 296 301 306 307 301 299 301 311 329 337 331 325
199 207 212 216 219 219 212 204 222 240 240 272 293 289 292 295 286 298 311 313 316 332 334 323 324 335 336 328 322 322 321 317 315 316 312 308 310 320 333 343 341 338 330 333
194 198 204 226 236 216 206 206 218 235 233 234 258 272 278 295 305 307 310 320 325 327 320 316 320 323 326 325 324 324 326 328 328 324 322 324 330 331 334 331 337 344 343 337
Height
1493 1490 1491 1489 1489 1490 1490 1487 1486 1478 1477 1469 1467 1466 1463 1461 1458 1456 1453 1451 1448 1446 1443 1440 1437 1434 1432 1429 1427 1426 1424 1424 1423 1423 1423 1423 1423 1423 1423 1423 1423 1423 1423 1424
1492 1488 1488 1487 1485 1486 1485 1483 1482 1479 1475 1466 1466 1464 1462 1460 1457 1454 1452 1449 1446 1443 1440 1437 1434 1432 1429 1427 1425 1423 1422 1422 1421 1421 1420 1420 1420 1420 1420 1420 1420 1420 1420 1421
1493 1490 1487 1485 1480 1482 1481 1479 1478 1476 1471 1466 1464 1462 1460 1458 1456 1453 1451 1448 1444 1441 1438 1435 1432 1430 1427 1425 1423 1422 1421 1420 1419 1419 1418 1418 1418 1417 1417 1417 1417 1417 1418 1419
1497 1493 1487 1477 1475 1475 1476 1475 1474 1470 1467 1466 1464 1461 1459 1457 1455 1452 1449 1445 1442 1439 1435 1433 1430 1428 1426 1424 1422 1420 1419 1418 1418 1417 1416 1416 1416 1415 1416 1416 1416 1416 1416 1417
1498 1494 1486 1476 1473 1474 1475 1472 1469 1469 1466 1464 1462 1459 1456 1455 1453 1451 1447 1444 1440 1437 1433 1430 1428 1426 1424 1422 1420 1419 1418 1417 1416 1415 1415 1414 1414 1414 1414 1414 1414 1415 1415 1415
1497 1491 1485 1474 1472 1471 1473 1472 1467 1466 1464 1463 1462 1462 1457 1454 1451 1448 1445 1441 1437 1434 1431 1428 1426 1424 1423 1421 1419 1418 1417 1416 1415 1414 1413 1413 1413 1412 1413 1413 1413 1413 1413 1414
1496 1493 1482 1474 1472 1472 1476 1471 1466 1464 1463 1462 1461 1459 1456 1453 1449 1446 1443 1439 1436 1432 1429 1427 1425 1424 1422 1420 1419 1418 1417 1416 1415 1414 1413 1412 1412 1412 1412 1412 1411 1412 1412 1413
1495 1492 1482 1472 1471 1473 1471 1466 1464 1463 1462 1460 1458 1456 1453 1451 1448 1444 1441 1438 1435 1431 1429 1427 1425 1423 1421 1420 1419 1418 1416 1415 1414 1413 1412 1412 1411 1411 1411 1411 1411 1411 1411 1411
1483 1479 1471 1469 1468 1468 1466 1465 1463 1462 1460 1459 1457 1454 1452 1449 1446 1443 1440 1437 1434 1432 1429 1427 1425 1423 1421 1420 1419 1418 1416 1415 1414 1413 1412 1412 1411 1411 1411 1411 1411 1411 1411 1411
1478 1471 1468 1467 1466 1466 1465 1463 1462 1460 1459 1457 1455 1453 1450 1448 1445 1442 1439 1437 1434 1431 1429 1427 1426 1424 1422 1421 1420 1418 1416 1415 1414 1413 1412 1412 1412 1411 1411 1411 1411 1411 1411 1411
1474 1468 1465 1463 1463 1463 1462 1461 1459 1458 1457 1455 1453 1451 1449 1446 1444 1441 1439 1436 1434 1431 1429 1428 1426 1424 1423 1421 1420 1418 1416 1415 1415 1414 1413 1412 1412 1412 1412 1411 1412 1411 1411 1411
1467 1463 1463 1461 1461 1461 1460 1458 1457 1456 1454 1453 1451 1449 1447 1445 1443 1441 1438 1436 1434 1431 1429 1428 1426 1424 1423 1421 1420 1418 1416 1416 1415 1414 1413 1413 1412 1412 1412 1412 1411 1411 1411 1411
1460 1459 1460 1459 1458 1458 1457 1456 1455 1454 1452 1451 1449 1448 1446 1444 1442 1440 1438 1436 1433 1431 1430 1428 1426 1424 1423 1422 1420 1419 1417 1416 1415 1414 1414 1413 1413 1412 1411 1412 1412 1411 1411 1411
1457 1458 1457 1456 1456 1456 1455 1454 1453 1452 1450 1449 1448 1446 1444 1443 1441 1439 1437 1435 1433 1431 1430 1428 1426 1425 1424 1422 1421 1419 1418 1417 1416 1415 1414 1413 1413 1412 1412 1411 1410 1410 1410 1410
1455 1455 1454 1454 1453 1453 1452 1451 1450 1449 1448 1447 1446 1445 1443 1442 1440 1438 1437 1435 1433 1431 1429 1428 1426 1425 1424 1422 1421 1419 1418 1417 1416 1415 1414 1414 1413 1413 1412 1411 1410 1410 1409 1410
1451 1451 1451 1451 1450 1450 1449 1448 1448 1447 1446 1445 1444 1443 1442 1441 1439 1438 1436 1434 1433 1431 1429 1428 1426 1425 1424 1422 1421 1419 1418 1417 1416 1415 1414 1414 1413 1412 1412 1411 1410 1409 1409 1409
1448 1447 1447 1447 1447 1447 1447 1446 1446 1445 1444 1443 1443 1442 1441 1439 1438 1437 1435 1434 1432 1430 1429 1427 1426 1425 1423 1422 1420 1419 1418 1417 1416 1415 1414 1414 1413 1412 1411 1410 1410 1409 1409 1409
1445 1445 1445 1445 1445 1444 1444 1444 1444 1443 1443 1442 1441 1440 1439 1438 1437 1435 1434 1433 1431 1430 1428 1427 1425 1424 1423 1421 1420 1419 1418 1416 1415 1415 1414 1413 1412 1412 1411 1410 1409 1409 1408 1408
1443 1443 1443 1443 1443 1443 1442 1442 1441 1441 1441 1440 1440 1439 1438 1437 1436 1434 1433 1431 1429 1428 1427 1426 1425 1423 1422 1421 1420 1418 1417 1416 1415 1414 1413 1413 1412 1411 1410 1410 1409 1408 1408 1408
1441 1441 1441 1441 1441 1441 1440 1440 1440 1439 1439 1439 1438 1437 1436 1435 1434 1433 1431 1430 1428 1427 1426 1425 1424 1422 1421 1420 1419 1418 1417 1415 1414 1413 1412 1412 1411 1410 1410 1409 1409 1408 1408 1407
1439 1439 1439 1439 1439 1439 1439 1438 1438 1438 1437 1437 1436 1435 1435 1434 1433 1431 1430 1428 1427 1426 1425 1424 1423 1421 1420 1419 1418 1417 1416 1415 1414 1413 1412 1411 1410 1410 1409 1408 1408 1407 1407 1407
1437 1437 1438 1438 1438 1438 1437 1437 1436 1436 1436 1435 1434 1434 1433 1432 1431 1430 1429 1427 1426 1425 1424 1423 1422 1421 1420 1419 1418 1417 1415 1414 1413 1412 1411 1410 1410 1409 1408 1407 1407 1407 1406 1406
1435 1436 1436 1436 1436 1436 1436 1435 1435 1435 1434 1433 1433 1432 1431 1430 1429 1428 1427 1426 1425 1424 1423 1422 1421 1420 1419 1418 1417 1416 1415 1414 1413 1412 1411 1410 1409 1408 1407 1407 1406 1406 1406 1405
1434 1434 1435 1435 1435 1435 1434 1434 1434 1433 1432 1432 1431 1431 1430 1429 1428 1427 1426 1425 1424 1423 1422 1421 1420 1419 1418 1417 1416 1415 1414 1413 1412 1411 1410 1409 1408 1408 1407 1406 1406 1405 1405 1404
1432 1433 1433 1433 1433 1433 1433 1432 1432 1431 1431 1430 1430 1429 1428 1428 1427 1426 1425 1424 1423 1422 1421 1420 1419 1418 1417 1416 1415 1414 1413 1412 1411 1410 1410 1409 1408 1407 1407 1406 1405 1405 1404 1404
1430 1431 1431 1431 1431 1431 1431 1430 1430 1429 1429 1428 1428 1428 1427 1426 1425 1424 1423 1422 1422 1421 1420 1419 1418 1417 1416 1415 1414 1414 1413 1412 1411 1410 1409 1409 1408 1407 1407 1406 1405 1405 1404 1404
1428 1429 1429 1429 1429 1429 1429 1429 1428 1428 1427 1427 1427 1426 1426 1425 1424 1423 1422 1421 1420 1420 1419 1418 1417 1416 1415 1414 1414 1413 1412 1411 1410 1410 1409 1408 1408 1407 1407 1406 1406 1405 1405 1404